Location: Unspecified
(0.0000°N, 0.0000°E)
Time: 11:31:55
(UTC+02:00)

Daily predictions for brighter satellites

Satellite Brightness Start Highest point End
(mag) Time Altitude Azimuth Time Altitude Azimuth Time Altitude Azimuth
Ariane H10+ 3.5 19:17:37 10° WSW 19:22:01 77° S 19:57:13 10° E
Ariane H10+ 3.5 19:17:36 10° WSW 19:22:01 77° S 19:57:13 10° E
ARIANE 5 R/B 4.4 20:20:11 10° WSW 20:23:35 45° S 20:30:35 10° E
Cosmos 1025 Rocket 3.4 20:22:16 10° S 20:26:38 73° W 20:31:00 10° N
ARIANE 5 DEB (SYLDA) 1.7 20:25:54 10° W 20:28:11 90° S 20:30:50 10° E
CZ-4 R/B 4.4 20:26:25 10° SSE 20:30:33 78° E 20:34:41 10° N
FENGYUN 3A 3.7 20:25:34 10° SSE 20:30:57 89° WSW 20:36:19 10° NNW
Aurora 2 Rocket 4.3 20:27:01 10° W 20:31:36 45° NNW 20:38:09 10° NE
ISS -3.2 20:32:35 10° NNW 20:35:40 40° NE 20:38:35 11° SE
SJ 16-02 3.6 20:32:44 10° NW 20:36:22 26° WSW 20:40:01 10° SSW
NOSS 0 Rocket 4.3 20:31:43 10° N 20:37:33 44° ENE 20:43:21 10° SE
Cosmos 1680 Rocket 4.3 20:33:17 10° SSW 20:38:23 58° WNW 20:43:29 10° N
Ariane Rocket 3.4 20:35:58 10° S 20:41:00 66° WSW 20:46:02 10° NNW
Cosmos 1455 Rocket 4.2 20:37:36 10° NNW 20:41:53 48° W 20:46:10 10° SSW
Lacrosse 5 2.6 20:39:07 10° S 20:43:33 30° ESE 20:47:57 10° ENE
NOSS 2-3 (D) 3.6 20:43:57 10° SSW 20:48:42 65° ESE 20:53:04 10° NNE
CZ-4 R/B 3.3 20:47:25 10° SSW 20:51:03 31° WSW 20:54:35 10° NW
Cosmos 1980 4.0 20:47:32 10° N 20:52:56 48° ENE 20:57:53 12° SSE
H-2A R/B 2.7 20:49:20 10° SSE 20:53:15 69° ENE 20:57:06 10° N
SL-16 R/B 4.0 20:52:36 10° NE 20:54:59 13° ENE 20:55:55 12° E
Landsat 4 4.0 20:54:07 10° N 20:57:52 69° WNW 21:01:40 10° SSW
Iridium 40 4.1 20:56:08 10° S 20:58:38 67° E 21:01:19 10° N
CZ-4C R/B 4.4 20:56:19 10° NW 21:03:45 39° WSW 21:11:05 10° S
Cosmos 2237 Rocket 2.3 20:58:37 10° N 21:04:10 58° ENE 21:08:36 16° SSE
Cosmos 1634 Rocket 4.0 20:58:29 10° S 21:04:49 80° E 21:11:08 10° N
Cosmos 2142 Rocket 4.5 20:59:58 10° S 21:06:06 64° E 21:12:16 10° NNE
Cosmos 1544 3.6 21:04:30 10° NNE 21:07:50 37° E 21:08:45 31° ESE
NOSS 2-3 (E) 4.1 21:03:24 10° SSW 21:08:06 64° WNW 21:12:28 10° NNE
GPS 2-14 Rocket1 4.5 21:06:40 10° SSW 21:08:38 15° SSE 21:08:38 15° SSE
Cosmos 1892 Rocket 3.6 21:05:26 10° S 21:09:46 78° W 21:14:07 10° N
Cosmos 2263 Rocket 2.1 21:04:32 10° S 21:10:12 71° ESE 21:15:51 10° NNE
ATLAS 2AS CENTAUR R/B 3.5 21:10:09 10° SSE 21:15:56 28° ESE 21:22:06 10° NE
ASC 2 Rocket 4.2 21:08:25 10° WSW 21:16:24 71° NNW 21:21:23 12° NE
HJ-1C 4.2 21:16:44 34° ENE 21:16:44 34° ENE 21:19:37 10° NNE
Cosmos 2219 Rocket 3.6 21:12:09 10° NW 21:17:16 36° WSW 21:22:25 10° S
Ariane V96 H10-3 3.8 21:17:42 10° WSW 21:21:55 25° SSW 21:22:15 25° S
Thor Agena Rocket 3.3 21:18:56 10° NNE 21:23:59 81° ESE 21:29:01 10° S
FREGAT/IRIS 2.5 21:27:00 79° NNW 21:27:00 79° NNW 21:29:47 10° N
Cosmos 1726 Rocket 4.4 21:23:11 10° NNE 21:26:32 32° ENE 21:26:32 32° ENE
Ariane H10+ 2.3 21:21:21 10° W 21:28:33 61° S 21:29:05 54° SE
IRAS Rocket 4.1 21:29:58 26° SSE 21:33:12 80° ENE 21:38:45 10° N
Cosmos 2333 Rocket 4.0 21:28:57 10° NW 21:33:52 29° WSW 21:38:48 10° SSW
Cosmos 489 Rocket 4.4 21:30:40 10° N 21:36:57 83° ENE 21:40:13 30° SSE
Nadezhda 4 Rocket 4.4 21:34:08 10° NNW 21:40:17 63° W 21:46:25 10° S
SEDSat Delta rocket 3.8 21:38:47 10° WSW 21:44:29 63° NW 21:47:11 27° NE
Envisat 2.9 21:46:44 51° S 21:48:05 88° WSW 21:53:09 10° NNW
Cosmos 2279 Rocket 4.2 21:45:15 10° S 21:51:25 68° W 21:57:33 10° N
SJ-6B 3.8 21:54:11 40° NNW 21:54:11 40° NNW 21:56:41 10° NNW
Cosmos 1626 Rocket 3.6 21:53:34 73° WSW 21:53:45 75° W 21:58:12 10° N
Cosmos 1092 Rocket 4.3 21:56:03 10° NNW 22:02:09 62° W 22:05:21 29° SSW
Cosmos 2026 Rocket 3.8 21:56:40 10° N 22:02:42 73° E 22:02:42 73° E
Resurs 01 Rocket 4.0 22:08:18 13° NNE 22:08:18 13° NNE 22:08:53 10° N
Cosmos 1602 Rocket 4.4 22:07:40 48° NW 22:07:40 48° NW 22:11:12 10° N
Ariane H10 4.1 12:45:58 10° W 22:16:33 82° N 22:19:02 53° ENE
Lacrosse 5 4.4 22:22:45 10° WSW 22:26:17 19° WNW 22:29:49 10° NNW
ARIANE 5 DEB (SYLDA) 4.2 22:20:14 10° W 22:26:17 84° S 23:02:43 10° E
ARIANE 5 DEB (SYLDA) 4.2 22:20:14 10° W 22:26:18 84° S 23:02:43 10° E
SL-16 R/B 3.4 22:33:29 10° NW 22:37:50 39° W 22:37:50 39° W
ATLAS 2AS CENTAUR R/B 4.2 23:00:13 10° SW 23:06:34 34° WNW 23:13:24 10° N
